Dades meteomassalio
Diari Summary for Maig 16, 2017 Units:  Metric    English   Both
« Previous Day
Next Day »
Diari Semanal Mensual Anual Personalitzat
  Maxima: Minima: Mijana:
Temperatura: 31.3 °C 11.4 °C 22.4 °C
Rosada: 12.2 °C 6.2 °C 8.6 °C
Humitat: 75 % 21 % 45 %
Velocitat del vent: 31.5 km/h 0.0 km/h 6.9 km/h
Racha vent: 31.5 km/h - -
Vent:- - ESE
Pressio: 1025.6 hPa 1020.9 hPa -
Pluja: 0.0 mm    
Historical Graphs
 
 
Tabular Data for Maig 16, 2017
Time Temperature Dew Point Pressure Wind Wind Speed Wind Gust Humidity Rainfall Rate (Hourly) solar Conditions
00:04 20.7 °C 8.9 °C 1025.3 hPa Calm     47 % 0.0 mm 0.0 W/m2 CLR
00:09 20.6 °C 8.8 °C 1025.3 hPa Calm     47 % 0.0 mm 0.0 W/m2 CLR
00:14 20.5 °C 8.8 °C 1025.3 hPa Calm     47 % 0.0 mm 0.0 W/m2 CLR
00:19 20.4 °C 8.7 °C 1024.9 hPa Calm     47 % 0.0 mm 0.0 W/m2 CLR
00:24 20.2 °C 8.8 °C 1024.9 hPa Calm     48 % 0.0 mm 0.0 W/m2 CLR
00:29 20.1 °C 8.8 °C 1024.9 hPa Calm     48 % 0.0 mm 0.0 W/m2 CLR
00:34 19.9 °C 8.8 °C 1024.9 hPa Calm     49 % 0.0 mm 0.0 W/m2 CLR
00:39 19.8 °C 8.8 °C 1024.9 hPa Calm     49 % 0.0 mm 0.0 W/m2 CLR
00:44 19.6 °C 8.6 °C 1024.9 hPa Calm     49 % 0.0 mm 0.0 W/m2 CLR
00:49 19.5 °C 9.1 °C 1024.9 hPa Calm     51 % 0.0 mm 0.0 W/m2 CLR
00:50 19.4 °C 9.1 °C 1025.3 hPa Calm     51 % 0.0 mm 0.0 W/m2 CLR
00:55 19.3 °C 9.2 °C 1025.3 hPa Calm     52 % 0.0 mm 0.0 W/m2 CLR
01:00 19.0 °C 8.9 °C 1025.3 hPa Calm     52 % 0.0 mm 0.0 W/m2 CLR
01:05 18.7 °C 8.7 °C 1025.3 hPa Calm     52 % 0.0 mm 0.0 W/m2 CLR
01:10 18.6 °C 8.5 °C 1024.9 hPa Calm     52 % 0.0 mm 0.0 W/m2 CLR
01:15 18.5 °C 8.7 °C 1024.9 hPa Calm     53 % 0.0 mm 0.0 W/m2 CLR
01:20 18.3 °C 8.6 °C 1025.3 hPa Calm     53 % 0.0 mm 0.0 W/m2 CLR
01:25 18.2 °C 9.0 °C 1025.3 hPa Calm     55 % 0.0 mm 0.0 W/m2 CLR
01:30 18.1 °C 8.9 °C 1025.3 hPa ENE 3.7 km/h 3.7 km/h 55 % 0.0 mm 0.0 W/m2 CLR
01:35 18.0 °C 8.6 °C 1025.3 hPa East 5.6 km/h 5.6 km/h 54 % 0.0 mm 0.0 W/m2 CLR
01:40 18.0 °C 8.6 °C 1025.3 hPa Calm     54 % 0.0 mm 0.0 W/m2 CLR
01:45 18.1 °C 8.3 °C 1025.3 hPa Calm     53 % 0.0 mm 0.0 W/m2 CLR
01:50 18.2 °C 8.4 °C 1025.3 hPa Calm     53 % 0.0 mm 0.0 W/m2 CLR
01:55 18.0 °C 8.3 °C 1025.3 hPa Calm     53 % 0.0 mm 0.0 W/m2 CLR
02:00 17.9 °C 8.2 °C 1025.3 hPa Calm     53 % 0.0 mm 0.0 W/m2 CLR
02:05 17.8 °C 8.7 °C 1025.3 hPa Calm     55 % 0.0 mm 0.0 W/m2 CLR
02:10 17.6 °C 8.2 °C 1025.3 hPa Calm     54 % 0.0 mm 0.0 W/m2 CLR
02:15 17.4 °C 8.1 °C 1025.3 hPa Calm     54 % 0.0 mm 0.0 W/m2 CLR
02:20 17.4 °C 8.3 °C 1025.3 hPa Calm     55 % 0.0 mm 0.0 W/m2 CLR
02:25 17.3 °C 8.2 °C 1025.3 hPa Calm     55 % 0.0 mm 0.0 W/m2 CLR
02:30 17.2 °C 8.6 °C 1025.3 hPa Calm     57 % 0.0 mm 0.0 W/m2 CLR
02:35 17.0 °C 8.9 °C 1025.3 hPa Calm     59 % 0.0 mm 0.0 W/m2 CLR
02:40 16.8 °C 8.9 °C 1025.3 hPa Calm     60 % 0.0 mm 0.0 W/m2 CLR
02:45 16.6 °C 8.8 °C 1025.3 hPa Calm     60 % 0.0 mm 0.0 W/m2 CLR
02:50 16.4 °C 8.3 °C 1025.3 hPa Calm     59 % 0.0 mm 0.0 W/m2 CLR
02:55 16.2 °C 8.6 °C 1025.3 hPa Calm     61 % 0.0 mm 0.0 W/m2 CLR
03:00 15.9 °C 8.7 °C 1025.3 hPa Calm     62 % 0.0 mm 0.0 W/m2 CLR
03:05 15.8 °C 8.7 °C 1025.3 hPa Calm     63 % 0.0 mm 0.0 W/m2 CLR
03:10 15.6 °C 8.8 °C 1025.3 hPa Calm     64 % 0.0 mm 0.0 W/m2 CLR
03:15 15.4 °C 8.6 °C 1025.3 hPa Calm     64 % 0.0 mm 0.0 W/m2 CLR
03:20 15.2 °C 8.7 °C 1024.9 hPa Calm     65 % 0.0 mm 0.0 W/m2 CLR
03:25 15.0 °C 8.7 °C 1024.9 hPa Calm     66 % 0.0 mm 0.0 W/m2 CLR
03:30 14.8 °C 8.6 °C 1024.9 hPa Calm     66 % 0.0 mm 0.0 W/m2 CLR
03:35 14.7 °C 8.4 °C 1024.9 hPa Calm     66 % 0.0 mm 0.0 W/m2 CLR
03:40 14.6 °C 8.6 °C 1024.9 hPa Calm     67 % 0.0 mm 0.0 W/m2 CLR
03:45 14.4 °C 8.4 °C 1024.9 hPa Calm     67 % 0.0 mm 0.0 W/m2 CLR
03:50 14.3 °C 8.5 °C 1024.9 hPa Calm     68 % 0.0 mm 0.0 W/m2 CLR
03:55 14.1 °C 8.1 °C 1024.9 hPa Calm     67 % 0.0 mm 0.0 W/m2 CLR
04:01 14.1 °C 8.2 °C 1024.9 hPa Calm     68 % 0.0 mm 0.0 W/m2 CLR
04:06 14.0 °C 8.2 °C 1024.9 hPa Calm     68 % 0.0 mm 0.0 W/m2 CLR
04:11 13.8 °C 8.0 °C 1024.9 hPa Calm     68 % 0.0 mm 0.0 W/m2 CLR
04:16 13.6 °C 8.0 °C 1024.9 hPa Calm     69 % 0.0 mm 0.0 W/m2 CLR
04:21 13.5 °C 8.1 °C 1024.9 hPa Calm     70 % 0.0 mm 0.0 W/m2 CLR
04:26 13.4 °C 8.2 °C 1024.9 hPa Calm     71 % 0.0 mm 0.0 W/m2 CLR
04:31 13.3 °C 8.1 °C 1024.9 hPa Calm     71 % 0.0 mm 0.0 W/m2 CLR
04:36 13.2 °C 7.9 °C 1024.9 hPa Calm     70 % 0.0 mm 0.0 W/m2 CLR
04:41 13.2 °C 7.9 °C 1024.9 hPa Calm     70 % 0.0 mm 0.0 W/m2 CLR
04:46 13.2 °C 7.9 °C 1024.9 hPa Calm     70 % 0.0 mm 0.0 W/m2 CLR
04:51 13.3 °C 7.7 °C 1024.9 hPa Calm     69 % 0.0 mm 0.0 W/m2 CLR
04:56 13.2 °C 7.7 °C 1024.9 hPa Calm     69 % 0.0 mm 0.0 W/m2 CLR
05:01 13.2 °C 7.9 °C 1024.9 hPa Calm     70 % 0.0 mm 0.0 W/m2 CLR
05:06 13.2 °C 7.8 °C 1024.9 hPa Calm     70 % 0.0 mm 0.0 W/m2 CLR
05:11 13.1 °C 7.7 °C 1024.9 hPa Calm     70 % 0.0 mm 0.0 W/m2 CLR
05:16 13.0 °C 7.9 °C 1024.9 hPa Calm     71 % 0.0 mm 0.0 W/m2 CLR
05:21 12.9 °C 7.8 °C 1024.9 hPa Calm     71 % 0.0 mm 0.0 W/m2 CLR
05:26 12.7 °C 7.8 °C 1024.9 hPa Calm     72 % 0.0 mm 0.0 W/m2 CLR
05:31 12.6 °C 7.7 °C 1024.9 hPa Calm     72 % 0.0 mm 0.0 W/m2 CLR
05:36 12.6 °C 7.7 °C 1024.9 hPa Calm     72 % 0.0 mm 0.0 W/m2 CLR
05:41 12.4 °C 7.6 °C 1024.9 hPa Calm     72 % 0.0 mm 0.0 W/m2 CLR
05:46 12.4 °C 7.5 °C 1024.9 hPa Calm     72 % 0.0 mm 0.0 W/m2 CLR
05:51 12.3 °C 7.4 °C 1024.9 hPa Calm     72 % 0.0 mm 0.0 W/m2 CLR
05:56 12.3 °C 7.4 °C 1024.9 hPa Calm     72 % 0.0 mm 0.0 W/m2 CLR
06:01 12.4 °C 7.5 °C 1024.9 hPa Calm     72 % 0.0 mm 0.0 W/m2 CLR
06:06 12.3 °C 7.4 °C 1024.9 hPa Calm     72 % 0.0 mm 0.0 W/m2 CLR
06:11 12.2 °C 7.3 °C 1024.9 hPa Calm     72 % 0.0 mm 0.0 W/m2 CLR
06:16 12.0 °C 7.3 °C 1024.9 hPa Calm     73 % 0.0 mm 0.0 W/m2 CLR
06:21 11.8 °C 7.3 °C 1024.9 hPa Calm     74 % 0.0 mm 0.0 W/m2 CLR
06:26 11.8 °C 7.3 °C 1024.9 hPa Calm     74 % 0.0 mm 0.0 W/m2 CLR
06:31 11.7 °C 7.2 °C 1024.9 hPa Calm     74 % 0.0 mm 0.0 W/m2 OVC
06:36 11.6 °C 7.3 °C 1024.9 hPa Calm     75 % 0.0 mm 0.0 W/m2 OVC
06:41 11.5 °C 7.2 °C 1025.3 hPa Calm     75 % 0.0 mm 0.0 W/m2 OVC
06:46 11.4 °C 6.9 °C 1025.3 hPa Calm     74 % 0.0 mm 5.0 W/m2 OVC
06:51 11.4 °C 7.1 °C 1025.3 hPa Calm     75 % 0.0 mm 7.0 W/m2 BKN
06:56 11.4 °C 6.9 °C 1025.3 hPa Calm     74 % 0.0 mm 11.0 W/m2 BKN
07:02 11.4 °C 6.9 °C 1025.3 hPa Calm     74 % 0.0 mm 12.0 W/m2 BKN
07:06 11.4 °C 6.9 °C 1025.3 hPa Calm     74 % 0.0 mm 16.0 W/m2 BKN
07:11 11.4 °C 6.9 °C 1025.3 hPa Calm     74 % 0.0 mm 19.0 W/m2 BKN
07:16 11.6 °C 7.1 °C 1025.3 hPa Calm     74 % 0.0 mm 26.0 W/m2 BKN
07:17 11.6 °C 7.1 °C 1025.3 hPa Calm     74 % 0.0 mm 28.0 W/m2 BKN
07:22 11.8 °C 7.3 °C 1025.3 hPa Calm     74 % 0.0 mm 32.0 W/m2 BKN
07:27 11.9 °C 7.3 °C 1025.3 hPa SW 1.9 km/h   73 % 0.0 mm 49.0 W/m2 SCT
07:32 12.1 °C 7.2 °C 1025.3 hPa Calm     72 % 0.0 mm 62.0 W/m2 SCT
07:37 12.4 °C 7.5 °C 1025.3 hPa Calm     72 % 0.0 mm 74.0 W/m2 FEW
07:42 12.6 °C 7.4 °C 1025.6 hPa Calm     71 % 0.0 mm 91.0 W/m2 FEW
07:47 12.9 °C 7.6 °C 1025.6 hPa Calm     70 % 0.0 mm 107.0 W/m2 CLR
07:52 13.1 °C 7.8 °C 1025.6 hPa Calm     70 % 0.0 mm 123.0 W/m2 CLR
07:57 13.6 °C 8.0 °C 1025.6 hPa Calm     69 % 0.0 mm 134.0 W/m2 CLR
08:02 13.8 °C 7.8 °C 1025.6 hPa Calm     67 % 0.0 mm 137.0 W/m2 CLR
08:07 14.2 °C 8.1 °C 1025.6 hPa Calm     67 % 0.0 mm 178.0 W/m2 CLR
08:12 14.7 °C 8.2 °C 1025.6 hPa Calm     65 % 0.0 mm 195.0 W/m2 CLR
08:17 15.2 °C 8.4 °C 1025.3 hPa Calm     64 % 0.0 mm 214.0 W/m2 CLR
08:22 15.7 °C 8.4 °C 1025.6 hPa Calm     62 % 0.0 mm 239.0 W/m2 CLR
08:27 16.2 °C 8.6 °C 1025.3 hPa Calm     61 % 0.0 mm 255.0 W/m2 CLR
08:32 16.6 °C 8.6 °C 1025.3 hPa Calm     59 % 0.0 mm 278.0 W/m2 CLR
08:37 17.1 °C 8.7 °C 1025.6 hPa Calm     58 % 0.0 mm 295.0 W/m2 CLR
08:42 17.5 °C 8.9 °C 1025.6 hPa Calm     57 % 0.0 mm 308.0 W/m2 CLR
08:47 17.8 °C 8.9 °C 1025.6 hPa Calm     56 % 0.0 mm 325.0 W/m2 CLR
08:52 18.2 °C 8.8 °C 1025.6 hPa Calm     54 % 0.0 mm 339.0 W/m2 CLR
08:57 18.6 °C 9.9 °C 1025.6 hPa Calm     57 % 0.0 mm 371.0 W/m2 CLR
09:02 18.9 °C 9.7 °C 1025.3 hPa Calm     55 % 0.0 mm 387.0 W/m2 CLR
09:07 19.6 °C 10.0 °C 1025.3 hPa Calm     54 % 0.0 mm 396.0 W/m2 CLR
09:12 20.1 °C 9.9 °C 1025.6 hPa Calm     52 % 0.0 mm 406.0 W/m2 CLR
09:17 20.6 °C 9.8 °C 1025.6 hPa Calm     50 % 0.0 mm 420.0 W/m2 CLR
09:22 21.0 °C 9.6 °C 1025.3 hPa Calm     48 % 0.0 mm 425.0 W/m2 CLR
09:27 21.3 °C 10.2 °C 1025.3 hPa Calm     49 % 0.0 mm 439.0 W/m2 CLR
09:33 21.8 °C 10.0 °C 1025.3 hPa Calm     47 % 0.0 mm 459.0 W/m2 CLR
09:38 22.3 °C 9.2 °C 1025.3 hPa Calm     43 % 0.0 mm 446.0 W/m2 CLR
09:43 22.8 °C 8.4 °C 1025.3 hPa Calm     40 % 0.0 mm 345.0 W/m2 CLR
09:48 23.3 °C 8.2 °C 1025.3 hPa Calm     38 % 0.0 mm 83.0 W/m2 CLR
09:52 23.6 °C 8.4 °C 1025.3 hPa Calm     38 % 0.0 mm 512.0 W/m2 CLR
09:57 23.8 °C 8.2 °C 1025.3 hPa Calm     37 % 0.0 mm 485.0 W/m2 CLR
10:03 24.0 °C 7.6 °C 1025.3 hPa Calm     35 % 0.0 mm 555.0 W/m2 CLR
10:08 24.1 °C 7.3 °C 1025.3 hPa Calm     34 % 0.0 mm 568.0 W/m2 CLR
10:13 24.3 °C 7.4 °C 1025.3 hPa Calm     34 % 0.0 mm 592.0 W/m2 CLR
10:18 24.8 °C 7.4 °C 1025.3 hPa Calm     33 % 0.0 mm 610.0 W/m2 CLR
10:23 25.1 °C 7.2 °C 1025.3 hPa Calm     32 % 0.0 mm 622.0 W/m2 CLR
10:28 25.3 °C 7.0 °C 1024.9 hPa ENE 1.9 km/h 1.9 km/h 31 % 0.0 mm 719.0 W/m2 CLR
10:33 25.6 °C 7.6 °C 1024.9 hPa Calm     32 % 0.0 mm 715.0 W/m2 CLR
10:38 25.7 °C 7.3 °C 1024.9 hPa Calm   0.2 km/h 31 % 0.0 mm 724.0 W/m2 CLR
10:39 25.7 °C 7.3 °C 1024.9 hPa ENE 1.9 km/h 1.9 km/h 31 % 0.0 mm 717.0 W/m2 CLR
10:44 26.0 °C 7.6 °C 1024.9 hPa ENE 5.6 km/h 5.6 km/h 31 % 0.0 mm 740.0 W/m2 CLR
10:49 26.1 °C 7.7 °C 1024.9 hPa East 5.6 km/h 5.6 km/h 31 % 0.0 mm 749.0 W/m2 CLR
10:54 26.3 °C 7.4 °C 1024.9 hPa NE 3.7 km/h 3.7 km/h 30 % 0.0 mm 789.0 W/m2 CLR
10:59 26.7 °C 8.6 °C 1024.9 hPa ENE 9.3 km/h 9.3 km/h 32 % 0.0 mm 721.0 W/m2 CLR
11:04 26.8 °C 8.2 °C 1024.9 hPa NE 7.4 km/h 7.4 km/h 31 % 0.0 mm 837.0 W/m2 CLR
11:09 26.7 °C 9.6 °C 1024.9 hPa ENE 11.1 km/h 11.1 km/h 34 % 0.0 mm 585.0 W/m2 CLR
11:14 26.6 °C 11.1 °C 1024.6 hPa ENE 11.1 km/h 11.1 km/h 38 % 0.0 mm 424.0 W/m2 CLR
11:19 26.2 °C 11.9 °C 1024.6 hPa NNE 11.1 km/h 11.1 km/h 41 % 0.0 mm 420.0 W/m2 CLR
11:24 26.3 °C 12.0 °C 1024.6 hPa NE 9.3 km/h 9.3 km/h 41 % 0.0 mm 888.0 W/m2 CLR
11:29 26.6 °C 11.5 °C 1024.6 hPa NE 13.0 km/h 13.0 km/h 39 % 0.0 mm 863.0 W/m2 CLR
11:34 27.0 °C 12.2 °C 1024.6 hPa ENE 9.7 km/h 9.7 km/h 40 % 0.0 mm 896.0 W/m2 CLR
11:39 27.4 °C 11.4 °C 1024.6 hPa ENE 5.6 km/h 5.6 km/h 37 % 0.0 mm 816.0 W/m2 CLR
11:44 27.5 °C 11.1 °C 1024.6 hPa ENE 9.3 km/h   36 % 0.0 mm 715.0 W/m2 CLR
11:49 27.7 °C 9.9 °C 1024.6 hPa SE 6.4 km/h 6.4 km/h 33 % 0.0 mm 830.0 W/m2 CLR
11:54 27.7 °C 10.4 °C 1024.3 hPa NNE 3.7 km/h 3.7 km/h 34 % 0.0 mm 606.0 W/m2 CLR
11:59 27.8 °C 10.9 °C 1024.3 hPa Calm     35 % 0.0 mm 798.0 W/m2 CLR
12:04 28.0 °C 10.7 °C 1024.3 hPa NW 9.7 km/h 9.7 km/h 34 % 0.0 mm 838.0 W/m2 CLR
12:09 27.9 °C 10.6 °C 1024.3 hPa Calm     34 % 0.0 mm 842.0 W/m2 CLR
12:14 28.2 °C 10.4 °C 1024.3 hPa Calm     33 % 0.0 mm 849.0 W/m2 CLR
12:19 28.3 °C 10.5 °C 1023.9 hPa North 11.1 km/h 11.1 km/h 33 % 0.0 mm 856.0 W/m2 CLR
12:24 28.4 °C 10.6 °C 1023.9 hPa NNW 5.6 km/h 5.6 km/h 33 % 0.0 mm 861.0 W/m2 CLR
12:29 28.3 °C 10.4 °C 1023.9 hPa Calm     33 % 0.0 mm 868.0 W/m2 CLR
12:34 28.6 °C 10.3 °C 1023.9 hPa ESE 1.9 km/h 1.9 km/h 32 % 0.0 mm 875.0 W/m2 CLR
12:39 28.7 °C 8.3 °C 1023.9 hPa ESE 13.0 km/h 13.0 km/h 28 % 0.0 mm 882.0 W/m2 CLR
12:44 28.7 °C 8.9 °C 1023.9 hPa SE 14.8 km/h 14.8 km/h 29 % 0.0 mm 891.0 W/m2 CLR
12:49 28.7 °C 8.9 °C 1023.9 hPa SE 3.7 km/h   29 % 0.0 mm 895.0 W/m2 CLR
12:54 28.9 °C 9.1 °C 1023.9 hPa East 3.7 km/h 3.7 km/h 29 % 0.0 mm 911.0 W/m2 CLR
12:59 28.9 °C 9.1 °C 1023.6 hPa Calm     29 % 0.0 mm 921.0 W/m2 CLR
13:04 29.3 °C 9.4 °C 1023.6 hPa Calm     29 % 0.0 mm 919.0 W/m2 CLR
13:09 29.8 °C 9.3 °C 1023.6 hPa SE 8.0 km/h 8.0 km/h 28 % 0.0 mm 923.0 W/m2 CLR
13:14 29.7 °C 8.1 °C 1023.2 hPa East 3.7 km/h 3.7 km/h 26 % 0.0 mm 921.0 W/m2 CLR
13:19 29.8 °C 8.8 °C 1023.2 hPa East 7.4 km/h 7.4 km/h 27 % 0.0 mm 921.0 W/m2 CLR
13:24 29.9 °C 8.3 °C 1023.2 hPa SE 16.7 km/h 16.7 km/h 26 % 0.0 mm 925.0 W/m2 CLR
13:29 29.8 °C 7.7 °C 1023.2 hPa East 11.1 km/h 11.1 km/h 25 % 0.0 mm 928.0 W/m2 CLR
13:34 29.6 °C 8.0 °C 1022.9 hPa NE 5.6 km/h 5.6 km/h 26 % 0.0 mm 928.0 W/m2 CLR
13:39 29.7 °C 8.2 °C 1022.9 hPa SE 6.4 km/h 6.4 km/h 26 % 0.0 mm 926.0 W/m2 CLR
13:44 29.9 °C 8.3 °C 1022.9 hPa SE 5.6 km/h   26 % 0.0 mm 935.0 W/m2 CLR
13:49 30.0 °C 7.8 °C 1022.9 hPa Calm     25 % 0.0 mm 935.0 W/m2 CLR
13:54 30.1 °C 8.5 °C 1022.9 hPa East 11.3 km/h 11.3 km/h 26 % 0.0 mm 911.0 W/m2 CLR
13:59 30.1 °C 7.3 °C 1022.9 hPa ESE 11.3 km/h 11.3 km/h 24 % 0.0 mm 921.0 W/m2 CLR
14:04 30.1 °C 7.3 °C 1022.6 hPa ESE 11.3 km/h 11.3 km/h 24 % 0.0 mm 926.0 W/m2 CLR
14:09 29.9 °C 8.3 °C 1022.9 hPa North 14.8 km/h 14.8 km/h 26 % 0.0 mm 919.0 W/m2 CLR
14:15 30.2 °C 9.2 °C 1022.6 hPa ENE 5.6 km/h 5.6 km/h 27 % 0.0 mm 928.0 W/m2 CLR
14:20 30.7 °C 7.8 °C 1022.6 hPa Calm   0.5 km/h 24 % 0.0 mm 928.0 W/m2 CLR
14:25 30.8 °C 7.9 °C 1022.6 hPa Calm   0.2 km/h 24 % 0.0 mm 932.0 W/m2 CLR
14:30 31.3 °C 7.1 °C 1022.2 hPa ESE 6.4 km/h 6.4 km/h 22 % 0.0 mm 933.0 W/m2 CLR
14:35 31.3 °C 6.4 °C 1022.2 hPa ESE 8.0 km/h 8.0 km/h 21 % 0.0 mm 928.0 W/m2 CLR
14:40 31.2 °C 6.2 °C 1022.2 hPa ENE 11.3 km/h 11.3 km/h 21 % 0.0 mm 872.0 W/m2 CLR
14:45 30.9 °C 9.7 °C 1022.2 hPa East 11.1 km/h 11.1 km/h 27 % 0.0 mm 893.0 W/m2 CLR
14:50 30.5 °C 10.9 °C 1022.2 hPa East 19.3 km/h 19.3 km/h 30 % 0.0 mm 875.0 W/m2 CLR
14:55 30.0 °C 11.5 °C 1021.9 hPa ENE 29.0 km/h 29.0 km/h 32 % 0.0 mm 821.0 W/m2 CLR
15:00 29.9 °C 11.9 °C 1021.9 hPa ENE 14.8 km/h 14.8 km/h 33 % 0.0 mm 886.0 W/m2 CLR
15:05 29.8 °C 11.8 °C 1021.9 hPa ENE 31.5 km/h 31.5 km/h 33 % 0.0 mm 867.0 W/m2 CLR
15:10 29.6 °C 12.1 °C 1021.9 hPa East 24.1 km/h 24.1 km/h 34 % 0.0 mm 875.0 W/m2 CLR
15:15 29.9 °C 11.9 °C 1021.9 hPa East 18.5 km/h 18.5 km/h 33 % 0.0 mm 853.0 W/m2 CLR
15:20 29.8 °C 11.3 °C 1021.9 hPa East 24.1 km/h 24.1 km/h 32 % 0.0 mm 851.0 W/m2 CLR
15:25 29.6 °C 11.6 °C 1021.9 hPa ESE 27.8 km/h 27.8 km/h 33 % 0.0 mm 858.0 W/m2 CLR
15:30 29.5 °C 11.6 °C 1021.6 hPa ESE 24.1 km/h 24.1 km/h 33 % 0.0 mm 844.0 W/m2 CLR
15:35 29.6 °C 11.1 °C 1021.9 hPa ESE 31.5 km/h 31.5 km/h 32 % 0.0 mm 872.0 W/m2 CLR
15:40 29.6 °C 10.6 °C 1021.6 hPa ESE 25.9 km/h 25.9 km/h 31 % 0.0 mm 851.0 W/m2 CLR
15:45 29.5 °C 11.1 °C 1021.6 hPa ESE 29.6 km/h 29.6 km/h 32 % 0.0 mm 793.0 W/m2 CLR
15:50 29.4 °C 10.6 °C 1021.6 hPa East 16.7 km/h 16.7 km/h 31 % 0.0 mm 756.0 W/m2 CLR
15:55 29.6 °C 10.7 °C 1021.6 hPa ESE 22.2 km/h 22.2 km/h 31 % 0.0 mm 747.0 W/m2 CLR
16:00 29.6 °C 10.2 °C 1021.6 hPa East 18.5 km/h 18.5 km/h 30 % 0.0 mm 765.0 W/m2 CLR
16:05 29.9 °C 10.4 °C 1021.6 hPa ESE 27.8 km/h 27.8 km/h 30 % 0.0 mm 745.0 W/m2 CLR
16:10 29.7 °C 9.7 °C 1021.6 hPa East 18.5 km/h 18.5 km/h 29 % 0.0 mm 791.0 W/m2 CLR
16:15 29.7 °C 9.8 °C 1021.6 hPa East 18.5 km/h 18.5 km/h 29 % 0.0 mm 779.0 W/m2 CLR
16:20 29.8 °C 9.8 °C 1021.6 hPa SE 14.8 km/h 14.8 km/h 29 % 0.0 mm 795.0 W/m2 CLR
16:25 29.6 °C 9.7 °C 1021.2 hPa East 22.2 km/h 22.2 km/h 29 % 0.0 mm 784.0 W/m2 CLR
16:30 29.7 °C 9.8 °C 1021.2 hPa ESE 24.1 km/h 24.1 km/h 29 % 0.0 mm 770.0 W/m2 CLR
16:35 29.6 °C 9.1 °C 1021.2 hPa East 24.1 km/h 24.1 km/h 28 % 0.0 mm 761.0 W/m2 CLR
16:40 29.3 °C 9.4 °C 1021.2 hPa East 17.7 km/h 17.7 km/h 29 % 0.0 mm 664.0 W/m2 CLR
16:45 29.3 °C 9.4 °C 1021.2 hPa SE 22.2 km/h 22.2 km/h 29 % 0.0 mm 717.0 W/m2 CLR
16:50 29.6 °C 9.1 °C 1021.2 hPa ESE 18.5 km/h 18.5 km/h 28 % 0.0 mm 708.0 W/m2 CLR
16:55 29.6 °C 9.1 °C 1021.2 hPa SE 27.8 km/h 27.8 km/h 28 % 0.0 mm 708.0 W/m2 CLR
17:00 29.6 °C 9.7 °C 1021.2 hPa SE 18.5 km/h 18.5 km/h 29 % 0.0 mm 708.0 W/m2 CLR
17:05 29.7 °C 9.2 °C 1021.2 hPa ESE 20.4 km/h 20.4 km/h 28 % 0.0 mm 526.0 W/m2 CLR
17:10 29.4 °C 9.5 °C 1021.2 hPa ESE 27.4 km/h 27.4 km/h 29 % 0.0 mm 513.0 W/m2 CLR
17:15 29.2 °C 9.3 °C 1021.2 hPa SE 13.0 km/h 13.0 km/h 29 % 0.0 mm 592.0 W/m2 CLR
17:20 29.2 °C 9.3 °C 1021.2 hPa ESE 22.2 km/h 22.2 km/h 29 % 0.0 mm 613.0 W/m2 CLR
17:25 29.2 °C 9.8 °C 1021.2 hPa ESE 22.5 km/h 22.5 km/h 30 % 0.0 mm 429.0 W/m2 CLR
17:30 29.2 °C 9.8 °C 1021.2 hPa SE 17.7 km/h 17.7 km/h 30 % 0.0 mm 445.0 W/m2 CLR
17:35 28.9 °C 9.6 °C 1021.2 hPa East 16.7 km/h 16.7 km/h 30 % 0.0 mm 464.0 W/m2 CLR
17:40 28.9 °C 9.1 °C 1021.2 hPa SE 20.4 km/h 20.4 km/h 29 % 0.0 mm 510.0 W/m2 CLR
17:45 28.7 °C 8.9 °C 1021.2 hPa SE 18.5 km/h 18.5 km/h 29 % 0.0 mm 480.0 W/m2 CLR
17:50 28.9 °C 9.1 °C 1021.2 hPa SSE 20.4 km/h 20.4 km/h 29 % 0.0 mm 522.0 W/m2 CLR
17:55 28.9 °C 9.1 °C 1021.2 hPa East 27.4 km/h 27.4 km/h 29 % 0.0 mm 645.0 W/m2 CLR
18:00 29.0 °C 8.7 °C 1020.9 hPa SE 20.4 km/h 20.4 km/h 28 % 0.0 mm 557.0 W/m2 CLR
18:05 28.9 °C 8.6 °C 1020.9 hPa ESE 25.9 km/h 25.9 km/h 28 % 0.0 mm 541.0 W/m2 CLR
18:10 28.8 °C 8.5 °C 1021.2 hPa SE 24.1 km/h 24.1 km/h 28 % 0.0 mm 490.0 W/m2 CLR
18:15 28.8 °C 8.4 °C 1021.2 hPa SE 27.8 km/h 27.8 km/h 28 % 0.0 mm 506.0 W/m2 CLR
18:20 28.8 °C 8.9 °C 1021.2 hPa East 18.5 km/h 18.5 km/h 29 % 0.0 mm 401.0 W/m2 CLR
18:25 28.7 °C 8.9 °C 1021.2 hPa ESE 16.7 km/h 16.7 km/h 29 % 0.0 mm 348.0 W/m2 CLR
18:30 28.3 °C 8.6 °C 1021.2 hPa ESE 16.7 km/h 16.7 km/h 29 % 0.0 mm 294.0 W/m2 CLR
18:35 28.1 °C 8.9 °C 1021.2 hPa ESE 31.5 km/h 31.5 km/h 30 % 0.0 mm 329.0 W/m2 CLR
18:40 28.1 °C 8.8 °C 1021.2 hPa ESE 18.5 km/h 18.5 km/h 30 % 0.0 mm 397.0 W/m2 CLR
18:45 28.2 °C 9.0 °C 1021.2 hPa ESE 24.1 km/h 24.1 km/h 30 % 0.0 mm 450.0 W/m2 CLR
18:50 28.3 °C 9.1 °C 1021.2 hPa SE 27.4 km/h 27.4 km/h 30 % 0.0 mm 434.0 W/m2 CLR
18:55 28.2 °C 9.0 °C 1021.2 hPa SE 16.7 km/h 16.7 km/h 30 % 0.0 mm 392.0 W/m2 CLR
19:00 28.1 °C 9.4 °C 1021.2 hPa SE 18.5 km/h 18.5 km/h 31 % 0.0 mm 301.0 W/m2 CLR
19:05 27.9 °C 9.2 °C 1020.9 hPa ESE 18.5 km/h 18.5 km/h 31 % 0.0 mm 202.0 W/m2 CLR
19:10 27.8 °C 9.2 °C 1020.9 hPa SE 22.2 km/h 22.2 km/h 31 % 0.0 mm 149.0 W/m2 CLR
19:15 27.7 °C 9.1 °C 1020.9 hPa ESE 9.7 km/h 9.7 km/h 31 % 0.0 mm 144.0 W/m2 CLR
19:20 27.6 °C 8.9 °C 1020.9 hPa ESE 16.1 km/h 16.1 km/h 31 % 0.0 mm 120.0 W/m2 CLR
19:25 27.4 °C 9.2 °C 1020.9 hPa ESE 16.7 km/h 16.7 km/h 32 % 0.0 mm 118.0 W/m2 CLR
19:27 27.3 °C 9.2 °C 1020.9 hPa SE 14.8 km/h 14.8 km/h 32 % 0.0 mm 120.0 W/m2 CLR
19:30 27.2 °C 9.1 °C 1020.9 hPa ESE 16.1 km/h 16.1 km/h 32 % 0.0 mm 127.0 W/m2 CLR
19:35 27.1 °C 9.4 °C 1020.9 hPa SE 14.8 km/h 14.8 km/h 33 % 0.0 mm 155.0 W/m2 CLR
19:40 27.1 °C 9.4 °C 1020.9 hPa SE 16.7 km/h 16.7 km/h 33 % 0.0 mm 186.0 W/m2 CLR
19:45 27.0 °C 9.3 °C 1020.9 hPa SSE 11.1 km/h 11.1 km/h 33 % 0.0 mm 169.0 W/m2 CLR
19:50 27.1 °C 9.4 °C 1021.2 hPa SE 9.3 km/h 9.3 km/h 33 % 0.0 mm 174.0 W/m2 CLR
19:55 27.0 °C 8.9 °C 1020.9 hPa SE 18.5 km/h 18.5 km/h 32 % 0.0 mm 144.0 W/m2 CLR
20:00 26.9 °C 8.8 °C 1021.2 hPa South 18.5 km/h 18.5 km/h 32 % 0.0 mm 111.0 W/m2 CLR
20:05 26.7 °C 8.6 °C 1021.2 hPa SSE 18.5 km/h 18.5 km/h 32 % 0.0 mm 88.0 W/m2 CLR
20:10 26.6 °C 8.6 °C 1021.2 hPa SE 16.7 km/h 16.7 km/h 32 % 0.0 mm 72.0 W/m2 CLR
20:15 26.4 °C 8.4 °C 1021.2 hPa SE 16.7 km/h 16.7 km/h 32 % 0.0 mm 69.0 W/m2 FEW
20:21 26.3 °C 8.7 °C 1021.2 hPa SSE 14.8 km/h 14.8 km/h 33 % 0.0 mm 56.0 W/m2 SCT
20:26 26.2 °C 9.1 °C 1021.2 hPa SSE 9.7 km/h 9.7 km/h 34 % 0.0 mm 58.0 W/m2 SCT
20:31 26.0 °C 8.9 °C 1021.2 hPa SE 14.8 km/h 14.8 km/h 34 % 0.0 mm 47.0 W/m2 SCT
20:37 25.8 °C 8.8 °C 1021.2 hPa SSE 11.1 km/h 11.1 km/h 34 % 0.0 mm 39.0 W/m2 BKN
20:42 25.7 °C 9.1 °C 1021.2 hPa SSE 13.0 km/h 13.0 km/h 35 % 0.0 mm 33.0 W/m2 BKN
20:47 25.5 °C 8.9 °C 1021.6 hPa SE 13.0 km/h 13.0 km/h 35 % 0.0 mm 26.0 W/m2 BKN
20:52 25.4 °C 8.8 °C 1021.2 hPa SSE 11.1 km/h 11.1 km/h 35 % 0.0 mm 19.0 W/m2 BKN
20:57 25.3 °C 9.1 °C 1021.2 hPa SSE 7.4 km/h 7.4 km/h 36 % 0.0 mm 12.0 W/m2 BKN
21:02 25.2 °C 8.6 °C 1021.6 hPa SE 14.8 km/h 14.8 km/h 35 % 0.0 mm 7.0 W/m2 BKN
21:07 25.1 °C 8.1 °C 1021.6 hPa South 11.1 km/h 11.1 km/h 34 % 0.0 mm 5.0 W/m2 OVC
21:12 25.0 °C 8.1 °C 1021.6 hPa SSE 11.3 km/h 11.3 km/h 34 % 0.0 mm 0.0 W/m2 OVC
21:17 24.9 °C 7.5 °C 1021.6 hPa SSE 13.0 km/h 13.0 km/h 33 % 0.0 mm 0.0 W/m2 OVC
21:22 24.8 °C 7.4 °C 1021.6 hPa SSE 13.0 km/h 13.0 km/h 33 % 0.0 mm 0.0 W/m2 OVC
21:27 24.6 °C 7.3 °C 1021.6 hPa SSE 9.3 km/h 9.3 km/h 33 % 0.0 mm 0.0 W/m2 CLR
21:32 24.5 °C 7.6 °C 1021.6 hPa SSE 5.6 km/h 5.6 km/h 34 % 0.0 mm 0.0 W/m2 CLR
21:37 24.4 °C 7.5 °C 1021.6 hPa SSE 13.0 km/h 13.0 km/h 34 % 0.0 mm 0.0 W/m2 CLR
21:42 24.3 °C 7.4 °C 1021.6 hPa SSE 18.5 km/h 18.5 km/h 34 % 0.0 mm 0.0 W/m2 CLR
21:47 24.3 °C 7.4 °C 1021.6 hPa SSE 13.0 km/h 13.0 km/h 34 % 0.0 mm 0.0 W/m2 CLR
21:52 24.2 °C 7.3 °C 1021.9 hPa South 9.7 km/h 9.7 km/h 34 % 0.0 mm 0.0 W/m2 CLR
21:57 24.1 °C 7.6 °C 1021.9 hPa SSE 5.6 km/h 5.6 km/h 35 % 0.0 mm 0.0 W/m2 CLR
22:02 23.9 °C 7.6 °C 1021.9 hPa South 11.1 km/h 11.1 km/h 35 % 0.0 mm 0.0 W/m2 CLR
22:07 23.8 °C 7.4 °C 1021.9 hPa SSE 7.4 km/h 7.4 km/h 35 % 0.0 mm 0.0 W/m2 CLR
22:12 23.7 °C 7.8 °C 1021.9 hPa Calm     36 % 0.0 mm 0.0 W/m2 CLR
22:17 23.6 °C 7.7 °C 1021.9 hPa Calm     36 % 0.0 mm 0.0 W/m2 CLR
22:22 23.5 °C 7.6 °C 1021.9 hPa Calm     36 % 0.0 mm 0.0 W/m2 CLR
22:27 23.3 °C 7.8 °C 1022.2 hPa Calm     37 % 0.0 mm 0.0 W/m2 CLR
22:32 23.1 °C 7.6 °C 1021.9 hPa Calm     37 % 0.0 mm 0.0 W/m2 CLR
22:37 23.0 °C 7.5 °C 1022.2 hPa Calm     37 % 0.0 mm 0.0 W/m2 CLR
22:42 22.8 °C 7.8 °C 1022.2 hPa Calm     38 % 0.0 mm 0.0 W/m2 CLR
22:47 22.7 °C 7.6 °C 1022.2 hPa Calm     38 % 0.0 mm 0.0 W/m2 CLR
22:52 22.5 °C 7.8 °C 1022.2 hPa Calm     39 % 0.0 mm 0.0 W/m2 CLR
22:57 22.3 °C 7.7 °C 1022.2 hPa Calm     39 % 0.0 mm 0.0 W/m2 CLR
23:02 22.2 °C 7.9 °C 1022.2 hPa Calm     40 % 0.0 mm 0.0 W/m2 CLR
23:07 22.1 °C 7.8 °C 1022.2 hPa Calm     40 % 0.0 mm 0.0 W/m2 CLR
23:12 21.9 °C 7.7 °C 1022.6 hPa Calm     40 % 0.0 mm 0.0 W/m2 CLR
23:17 21.8 °C 7.6 °C 1022.6 hPa Calm     40 % 0.0 mm 0.0 W/m2 CLR
23:22 21.8 °C 7.6 °C 1022.6 hPa Calm     40 % 0.0 mm 0.0 W/m2 CLR
23:27 21.6 °C 7.8 °C 1022.6 hPa Calm     41 % 0.0 mm 0.0 W/m2 CLR
23:32 21.4 °C 7.6 °C 1022.6 hPa SSW 3.2 km/h 3.2 km/h 41 % 0.0 mm 0.0 W/m2 CLR
23:37 21.3 °C 7.6 °C 1022.6 hPa Calm     41 % 0.0 mm 0.0 W/m2 CLR
23:42 21.3 °C 7.6 °C 1022.2 hPa Calm     41 % 0.0 mm 0.0 W/m2 CLR
23:47 21.3 °C 7.5 °C 1022.6 hPa Calm     41 % 0.0 mm 0.0 W/m2 CLR
23:52 21.2 °C 7.4 °C 1022.6 hPa Calm     41 % 0.0 mm 0.0 W/m2 CLR
23:57 21.2 °C 7.4 °C 1022.2 hPa Calm     41 % 0.0 mm 0.0 W/m2 CLR
Lo Temps de Massalio
Compliments of Weather Underground - 1.25 mb